| time (UTC) | temp F | wind direction | speed MPH | gust MPH | rain 1hr in | rain 24hr in | rain mn in | humidity % | barometer mb |
| 20260508090709 | 64 | 315 | 4.0 | 7.0 | 0.00 | 0.32 | 0.00 | 68 | 1013.4 |
| 20260508085209 | 64 | 315 | 4.0 | 8.0 | 0.00 | 0.32 | 0.00 | 72 | 1013.1 |
| 20260508084709 | 63 | 293 | 4.0 | 8.0 | 0.00 | 0.32 | 0.00 | 73 | 1013.0 |
| 20260508083709 | 62 | 315 | 4.0 | 7.0 | 0.00 | 0.32 | 0.00 | 76 | 1013.2 |
| 20260508083209 | 61 | 315 | 4.0 | 4.0 | 0.00 | 0.32 | 0.00 | 77 | 1012.9 |
| 20260508082709 | 61 | 293 | 4.0 | 4.0 | 0.00 | 0.32 | 0.00 | 78 | 1013.2 |
| 20260508082209 | 60 | 293 | 2.0 | 4.0 | 0.00 | 0.32 | 0.00 | 79 | 1012.9 |
| 20260508081709 | 60 | 270 | 3.0 | 4.0 | 0.00 | 0.32 | 0.00 | 81 | 1013.0 |
| 20260508081209 | 60 | 315 | 2.0 | 4.0 | 0.00 | 0.32 | 0.00 | 81 | 1012.9 |
| 20260508080709 | 60 | 315 | 2.0 | 6.0 | 0.00 | 0.32 | 0.00 | 82 | 1013.0 |
| 20260508080208 | 60 | 315 | 2.0 | 6.0 | 0.00 | 0.32 | 0.00 | 82 | 1012.9 |
| 20260508075708 | 60 | 315 | 2.0 | 6.0 | 0.00 | 0.32 | 0.00 | 82 | 1013.3 |
| 20260508074708 | 60 | 293 | 3.0 | 4.0 | 0.00 | 0.32 | 0.00 | 82 | 1012.9 |
| 20260508074208 | 60 | 293 | 2.0 | 4.0 | 0.00 | 0.32 | 0.00 | 82 | 1012.6 |
| 20260508072709 | 60 | 315 | 2.0 | 4.0 | 0.00 | 0.32 | 0.00 | 81 | 1012.2 |
| 20260508072209 | 60 | 293 | 3.0 | 4.0 | 0.00 | 0.32 | 0.00 | 81 | 1012.1 |
| 20260508071709 | 60 | 270 | 1.0 | 6.0 | 0.00 | 0.32 | 0.00 | 80 | 1012.0 |
| 20260508070708 | 60 | 293 | 2.0 | 8.0 | 0.00 | 0.32 | 0.00 | 80 | 1012.1 |
| 20260508070208 | 61 | 338 | 2.0 | 8.0 | 0.00 | 0.32 | 0.00 | 80 | 1012.0 |
| 20260508065709 | 60 | 338 | 5.0 | 7.0 | 0.00 | 0.32 | 0.00 | 79 | 1011.8 |
| 20260508065208 | 61 | 0 | 2.0 | 7.0 | 0.00 | 0.32 | 0.00 | 79 | 1011.6 |
| 20260508064709 | 60 | 338 | 2.0 | 7.0 | 0.00 | 0.32 | 0.00 | 81 | 1011.6 |
| 20260508064208 | 60 | 338 | 4.0 | 7.0 | 0.00 | 0.32 | 0.00 | 82 | 1011.8 |
| 20260508063708 | 60 | 315 | 3.0 | 6.0 | 0.00 | 0.32 | 0.00 | 84 | 1011.9 |
| 20260508062709 | 59 | 315 | 2.0 | 2.0 | 0.00 | 0.32 | 0.00 | 87 | 1011.8 |
| 20260508062209 | 59 | 293 | 1.0 | 2.0 | 0.00 | 0.32 | 0.00 | 88 | 1011.8 |
| 20260508061709 | 59 | 293 | 0.0 | 2.0 | 0.00 | 0.32 | 0.00 | 88 | 1011.6 |
| 20260508061209 | 58 | 293 | 1.0 | 2.0 | 0.00 | 0.32 | 0.00 | 89 | 1011.5 |
| 20260508060709 | 57 | 315 | 0.0 | 2.0 | 0.00 | 0.32 | 0.00 | 89 | 1011.4 |
| 20260508060209 | 56 | 293 | 2.0 | 2.0 | 0.00 | 0.32 | 0.00 | 90 | 1011.6 |
| 20260508055209 | 56 | 270 | 0.0 | 2.0 | 0.00 | 0.32 | 0.00 | 90 | 1011.7 |
| 20260508054709 | 55 | 270 | 0.0 | 2.0 | 0.00 | 0.32 | 0.00 | 90 | 1011.4 |
| 20260508054209 | 55 | 248 | 1.0 | 2.0 | 0.00 | 0.32 | 0.00 | 90 | 1011.4 |
| 20260508053709 | 55 | 225 | 2.0 | 2.0 | 0.00 | 0.32 | 0.00 | 90 | 1011.4 |
| 20260508053209 | 55 | 293 | 1.0 | 2.0 | 0.00 | 0.32 | 0.00 | 90 | 1011.3 |
| 20260508052709 | 55 | 293 | 1.0 | 2.0 | 0.00 | 0.32 | 0.00 | 90 | 1011.0 |
| 20260508052209 | 55 | 293 | 0.0 | 2.0 | 0.00 | 0.32 | 0.00 | 91 | 1011.2 |
| 20260508051709 | 55 | 315 | 1.0 | 2.0 | 0.00 | 0.32 | 0.00 | 91 | 1011.0 |
| 20260508051209 | 55 | 338 | 1.0 | 2.0 | 0.00 | 0.32 | 0.00 | 91 | 1011.0 |
| 20260508050709 | 55 | 315 | 0.0 | 2.0 | 0.00 | 0.32 | 0.00 | 91 | 1011.3 |
| 20260508050209 | 55 | 315 | 0.0 | 2.0 | 0.00 | 0.32 | 0.00 | 91 | 1011.0 |
| 20260508045209 | 55 | 270 | 1.0 | 4.0 | 0.00 | 0.32 | 0.00 | 91 | 1011.0 |
| 20260508044208 | 56 | 293 | 2.0 | 4.0 | 0.00 | 0.32 | 0.00 | 91 | 1010.9 |
| 20260508043709 | 56 | 293 | 2.0 | 4.0 | 0.00 | 0.32 | 0.00 | 91 | 1010.5 |
| 20260508043209 | 56 | 293 | 2.0 | 4.0 | 0.00 | 0.32 | 0.00 | 91 | 1010.5 |
| 20260508042709 | 56 | 293 | 2.0 | 4.0 | 0.00 | 0.32 | 0.00 | 91 | 1010.6 |
| 20260508041709 | 56 | 293 | 2.0 | 4.0 | 0.00 | 0.32 | 0.00 | 91 | 1010.7 |
| 20260508041209 | 55 | 270 | 1.0 | 4.0 | 0.00 | 0.32 | 0.00 | 91 | 1010.9 |
| 20260508040709 | 55 | 293 | 2.0 | 2.0 | 0.00 | 0.32 | 0.00 | 91 | 1010.6 |
| 20260508040209 | 56 | 293 | 2.0 | 2.0 | 0.00 | 0.32 | 0.00 | 91 | 1010.7 |
| 20260508035709 | 56 | 270 | 1.0 | 2.0 | 0.00 | 0.32 | 0.00 | 91 | 1010.7 |
| 20260508035208 | 56 | 270 | 1.0 | 2.0 | 0.00 | 0.32 | 0.00 | 91 | 1010.9 |
| 20260508034709 | 56 | 270 | 1.0 | 4.0 | 0.00 | 0.32 | 0.00 | 91 | 1010.9 |
| 20260508034209 | 55 | 270 | 2.0 | 4.0 | 0.00 | 0.32 | 0.00 | 92 | 1011.1 |
| 20260508033709 | 55 | 293 | 1.0 | 4.0 | 0.00 | 0.32 | 0.00 | 92 | 1010.6 |
| 20260508033209 | 56 | 293 | 2.0 | 2.0 | 0.00 | 0.32 | 0.00 | 92 | 1010.6 |
| 20260508032709 | 55 | 293 | 1.0 | 2.0 | 0.00 | 0.32 | 0.00 | 92 | 1010.7 |
| 20260508032209 | 55 | 248 | 1.0 | 0.0 | 0.00 | 0.32 | 0.00 | 92 | 1010.6 |
| 20260508023209 | 56 | 248 | 0.0 | 2.0 | 0.00 | 0.32 | 0.00 | 92 | 1011.1 |
| 20260508022709 | 56 | 248 | 0.0 | 2.0 | 0.00 | 0.32 | 0.00 | 92 | 1011.0 |
| 20260508022209 | 56 | 248 | 0.0 | 2.0 | 0.00 | 0.32 | 0.00 | 92 | 1011.1 |
| 20260508021209 | 56 | 270 | 1.0 | 2.0 | 0.00 | 0.32 | 0.00 | 92 | 1011.0 |
| 20260508020709 | 56 | 248 | 0.0 | 2.0 | 0.00 | 0.32 | 0.00 | 92 | 1011.1 |
| 20260508020208 | 56 | 293 | 1.0 | 4.0 | 0.00 | 0.32 | 0.00 | 92 | 1011.6 |
| 20260508015708 | 56 | 270 | 2.0 | 4.0 | 0.00 | 0.32 | 0.00 | 92 | 1011.3 |
| 20260508015209 | 56 | 270 | 2.0 | 4.0 | 0.00 | 0.32 | 0.00 | 92 | 1011.5 |
| 20260508014709 | 56 | 293 | 3.0 | 2.0 | 0.00 | 0.32 | 0.00 | 92 | 1011.6 |
| 20260508014208 | 56 | 270 | 1.0 | 4.0 | 0.00 | 0.32 | 0.00 | 92 | 1011.2 |
| 20260508013709 | 56 | 270 | 1.0 | 4.0 | 0.00 | 0.32 | 0.00 | 92 | 1011.2 |
| 20260508012709 | 56 | 293 | 3.0 | 4.0 | 0.00 | 0.32 | 0.00 | 92 | 1011.2 |
| 20260508012208 | 56 | 270 | 1.0 | 4.0 | 0.00 | 0.32 | 0.00 | 91 | 1011.4 |
| 20260508011709 | 56 | 270 | 1.0 | 4.0 | 0.00 | 0.32 | 0.00 | 91 | 1011.4 |
| 20260508011209 | 55 | 270 | 2.0 | 2.0 | 0.00 | 0.32 | 0.00 | 91 | 1011.4 |
| 20260508010709 | 55 | 248 | 2.0 | 2.0 | 0.00 | 0.32 | 0.00 | 91 | 1011.6 |
| 20260508010209 | 55 | 248 | 1.0 | 2.0 | 0.00 | 0.32 | 0.00 | 91 | 1011.4 |
| 20260508005708 | 55 | 270 | 1.0 | 2.0 | 0.00 | 0.32 | 0.00 | 91 | 1011.7 |
| 20260508005209 | 55 | 270 | 1.0 | 2.0 | 0.00 | 0.32 | 0.00 | 90 | 1011.7 |
| 20260508004709 | 56 | 270 | 1.0 | 2.0 | 0.00 | 0.32 | 0.00 | 90 | 1011.9 |
| 20260508003709 | 56 | 270 | 0.0 | 2.0 | 0.00 | 0.32 | 0.00 | 90 | 1012.0 |
| 20260508003209 | 56 | 293 | 2.0 | 2.0 | 0.00 | 0.32 | 0.00 | 90 | 1012.0 |
| 20260508002709 | 56 | 293 | 2.0 | 2.0 | 0.00 | 0.32 | 0.00 | 90 | 1012.1 |
| 20260508002209 | 57 | 293 | 1.0 | 2.0 | 0.00 | 0.32 | 0.00 | 90 | 1012.2 |
| 20260508001209 | 57 | 293 | 1.0 | 2.0 | 0.00 | 0.32 | 0.00 | 89 | 1012.3 |
| 20260507235709 | 57 | 315 | 1.0 | 4.0 | 0.00 | 0.32 | 0.00 | 89 | 1012.4 |
| 20260507235209 | 57 | 293 | 2.0 | 4.0 | 0.00 | 0.32 | 0.00 | 88 | 1012.4 |
| 20260507234708 | 57 | 293 | 2.0 | 4.0 | 0.00 | 0.32 | 0.00 | 88 | 1012.5 |
| 20260507234209 | 58 | 270 | 2.0 | 4.0 | 0.00 | 0.32 | 0.00 | 87 | 1012.4 |
| 20260507233709 | 59 | 293 | 2.0 | 4.0 | 0.00 | 0.32 | 0.00 | 85 | 1012.5 |
| 20260507233209 | 59 | 293 | 2.0 | 4.0 | 0.00 | 0.32 | 0.00 | 85 | 1012.5 |
| 20260507232709 | 59 | 293 | 2.0 | 2.0 | 0.00 | 0.32 | 0.00 | 85 | 1012.6 |
| 20260507232209 | 59 | 225 | 2.0 | 2.0 | 0.00 | 0.32 | 0.00 | 85 | 1012.7 |
| 20260507231709 | 60 | 248 | 2.0 | 4.0 | 0.00 | 0.32 | 0.00 | 83 | 1012.6 |
| 20260507230708 | 62 | 45 | 2.0 | 0.0 | 0.00 | 0.32 | 0.00 | 82 | 1012.8 |
| 20260507223709 | 62 | 45 | 1.0 | 8.0 | 0.00 | 0.32 | 0.00 | 83 | 1012.8 |
| 20260507223209 | 62 | 45 | 1.0 | 8.0 | 0.00 | 0.32 | 0.00 | 83 | 1012.7 |
| 20260507222709 | 62 | 68 | 2.0 | 8.0 | 0.00 | 0.32 | 0.00 | 83 | 1012.7 |
| 20260507222209 | 62 | 68 | 4.0 | 8.0 | 0.00 | 0.32 | 0.00 | 83 | 1012.6 |
| 20260507221709 | 62 | 90 | 2.0 | 7.0 | 0.00 | 0.32 | 0.00 | 83 | 1012.6 |
| 20260507220709 | 62 | 68 | 2.0 | 7.0 | 0.00 | 0.32 | 0.00 | 83 | 1012.5 |
| 20260507220208 | 62 | 45 | 3.0 | 7.0 | 0.00 | 0.32 | 0.32 | 82 | 1012.5 |
| 20260507215209 | 62 | 68 | 3.0 | 9.0 | 0.00 | 0.32 | 0.32 | 82 | 1012.4 |
| 20260507214209 | 62 | 90 | 5.0 | 9.0 | 0.00 | 0.32 | 0.32 | 81 | 1012.3 |
| 20260507213209 | 62 | 45 | 4.0 | 9.0 | 0.00 | 0.32 | 0.32 | 83 | 1012.2 |
| 20260507212709 | 62 | 68 | 4.0 | 11.0 | 0.00 | 0.32 | 0.32 | 84 | 1012.2 |
| 20260507212209 | 62 | 90 | 4.0 | 11.0 | 0.00 | 0.32 | 0.32 | 84 | 1012.2 |
| 20260507211709 | 62 | 45 | 5.0 | 11.0 | 0.00 | 0.32 | 0.32 | 85 | 1012.5 |
| 20260507211209 | 62 | 68 | 6.0 | 11.0 | 0.00 | 0.32 | 0.32 | 85 | 1011.9 |
| 20260507210709 | 62 | 45 | 5.0 | 11.0 | 0.00 | 0.32 | 0.32 | 84 | 1012.2 |
| 20260507210209 | 62 | 45 | 5.0 | 13.0 | 0.00 | 0.32 | 0.32 | 84 | 1012.0 |
| 20260507205709 | 62 | 68 | 7.0 | 13.0 | 0.00 | 0.32 | 0.32 | 84 | 1012.0 |
| 20260507205209 | 62 | 45 | 4.0 | 14.0 | 0.00 | 0.32 | 0.32 | 84 | 1012.1 |
| 20260507204709 | 62 | 45 | 4.0 | 14.0 | 0.00 | 0.32 | 0.32 | 84 | 1012.0 |
| 20260507204209 | 63 | 68 | 4.0 | 14.0 | 0.00 | 0.32 | 0.32 | 83 | 1012.1 |
| 20260507203709 | 63 | 68 | 8.0 | 14.0 | 0.00 | 0.32 | 0.32 | 80 | 1011.9 |
| 20260507203209 | 63 | 68 | 6.0 | 14.0 | 0.00 | 0.32 | 0.32 | 79 | 1011.8 |
| 20260507202709 | 62 | 45 | 8.0 | 14.0 | 0.00 | 0.32 | 0.32 | 79 | 1011.7 |
| 20260507202209 | 62 | 45 | 5.0 | 14.0 | 0.00 | 0.32 | 0.32 | 81 | 1011.8 |
| 20260507201709 | 62 | 68 | 7.0 | 13.0 | 0.00 | 0.32 | 0.32 | 82 | 1011.9 |
| 20260507200708 | 62 | 45 | 5.0 | 14.0 | 0.00 | 0.32 | 0.32 | 83 | 1011.9 |
| 20260507200209 | 62 | 68 | 8.0 | 14.0 | 0.00 | 0.32 | 0.32 | 83 | 1011.8 |
| 20260507194709 | 61 | 45 | 8.0 | 16.0 | 0.00 | 0.32 | 0.32 | 83 | 1011.6 |
| 20260507194208 | 61 | 45 | 8.0 | 16.0 | 0.00 | 0.32 | 0.32 | 84 | 1011.6 |
| 20260507193709 | 61 | 45 | 8.0 | 16.0 | 0.00 | 0.32 | 0.32 | 85 | 1011.4 |
| 20260507193209 | 62 | 45 | 10.0 | 16.0 | 0.00 | 0.32 | 0.32 | 86 | 1011.4 |
| 20260507191710 | 62 | 45 | 10.0 | 13.0 | 0.00 | 0.32 | 0.32 | 85 | 1011.3 |
| 20260507191209 | 62 | 23 | 6.0 | 13.0 | 0.00 | 0.32 | 0.32 | 86 | 1011.0 |
| 20260507190709 | 63 | 45 | 8.0 | 13.0 | 0.00 | 0.32 | 0.32 | 85 | 1010.8 |
| 20260507190209 | 63 | 45 | 7.0 | 9.0 | 0.00 | 0.32 | 0.32 | 85 | 1010.8 |
| 20260507185709 | 64 | 23 | 3.0 | 9.0 | 0.00 | 0.32 | 0.32 | 84 | 1010.9 |
| 20260507185209 | 64 | 23 | 5.0 | 8.0 | 0.00 | 0.32 | 0.32 | 83 | 1010.6 |
| 20260507184709 | 64 | 0 | 3.0 | 8.0 | 0.00 | 0.32 | 0.32 | 82 | 1010.6 |
| 20260507183709 | 64 | 23 | 4.0 | 6.0 | 0.00 | 0.32 | 0.32 | 82 | 1010.6 |
| 20260507183209 | 63 | 45 | 4.0 | 8.0 | 0.00 | 0.32 | 0.32 | 81 | 1010.6 |
| 20260507182709 | 63 | 23 | 4.0 | 8.0 | 0.00 | 0.32 | 0.32 | 80 | 1010.3 |
| 20260507182209 | 64 | 338 | 3.0 | 8.0 | 0.00 | 0.32 | 0.32 | 79 | 1010.2 |
| 20260507181709 | 64 | 45 | 4.0 | 8.0 | 0.00 | 0.32 | 0.32 | 78 | 1010.0 |
| 20260507181208 | 63 | 45 | 4.0 | 9.0 | 0.00 | 0.32 | 0.32 | 78 | 1009.9 |
| 20260507180710 | 63 | 45 | 2.0 | 9.0 | 0.00 | 0.32 | 0.32 | 79 | 1009.9 |
| 20260507180209 | 62 | 68 | 4.0 | 9.0 | 0.00 | 0.32 | 0.32 | 81 | 1010.0 |
| 20260507175709 | 62 | 68 | 4.0 | 9.0 | 0.00 | 0.32 | 0.32 | 82 | 1009.6 |
| 20260507175209 | 63 | 90 | 3.0 | 9.0 | 0.00 | 0.32 | 0.32 | 84 | 1009.9 |
| 20260507174709 | 63 | 90 | 4.0 | 9.0 | 0.00 | 0.32 | 0.32 | 84 | 1009.7 |
| 20260507174209 | 64 | 45 | 4.0 | 8.0 | 0.00 | 0.32 | 0.32 | 85 | 1009.7 |
| 20260507173709 | 63 | 45 | 5.0 | 6.0 | 0.00 | 0.32 | 0.32 | 84 | 1009.8 |
| 20260507172209 | 63 | 45 | 3.0 | 7.0 | 0.00 | 0.32 | 0.32 | 83 | 1010.0 |
| 20260507171209 | 64 | 45 | 3.0 | 7.0 | 0.00 | 0.32 | 0.32 | 83 | 1009.8 |
| 20260507170709 | 63 | 90 | 4.0 | 7.0 | 0.00 | 0.32 | 0.32 | 83 | 1009.6 |
| 20260507170209 | 63 | 68 | 2.0 | 6.0 | 0.00 | 0.32 | 0.32 | 83 | 1009.9 |
| 20260507165709 | 63 | 68 | 3.0 | 7.0 | 0.00 | 0.32 | 0.32 | 83 | 1009.9 |
| 20260507165209 | 63 | 90 | 4.0 | 7.0 | 0.00 | 0.32 | 0.32 | 83 | 1009.7 |
| 20260507164709 | 64 | 68 | 2.0 | 7.0 | 0.00 | 0.32 | 0.32 | 82 | 1009.8 |
| 20260507164209 | 64 | 68 | 4.0 | 7.0 | 0.00 | 0.32 | 0.32 | 80 | 1009.8 |
| 20260507163709 | 65 | 90 | 4.0 | 7.0 | 0.00 | 0.32 | 0.32 | 78 | 1009.8 |
| 20260507162709 | 65 | 45 | 4.0 | 6.0 | 0.00 | 0.32 | 0.32 | 75 | 1009.7 |
| 20260507162209 | 65 | 23 | 4.0 | 6.0 | 0.00 | 0.32 | 0.32 | 75 | 1009.6 |
| 20260507161709 | 65 | 45 | 2.0 | 6.0 | 0.00 | 0.32 | 0.32 | 77 | 1009.7 |
| 20260507161209 | 65 | 45 | 2.0 | 4.0 | 0.00 | 0.32 | 0.32 | 79 | 1009.6 |
| 20260507160709 | 63 | 68 | 4.0 | 6.0 | 0.00 | 0.32 | 0.32 | 81 | 1009.5 |
| 20260507160210 | 63 | 45 | 2.0 | 6.0 | 0.00 | 0.32 | 0.32 | 84 | 1009.5 |
| 20260507155709 | 62 | 45 | 4.0 | 7.0 | 0.00 | 0.32 | 0.32 | 85 | 1009.4 |
| 20260507155210 | 62 | 68 | 4.0 | 7.0 | 0.00 | 0.32 | 0.32 | 85 | 1009.4 |
| 20260507154709 | 62 | 45 | 4.0 | 7.0 | 0.01 | 0.32 | 0.32 | 86 | 1009.2 |
| 20260507154209 | 62 | 45 | 4.0 | 8.0 | 0.01 | 0.32 | 0.32 | 87 | 1009.2 |
| 20260507153209 | 62 | 45 | 3.0 | 8.0 | 0.02 | 0.32 | 0.32 | 88 | 1009.4 |
| 20260507152709 | 61 | 45 | 3.0 | 7.0 | 0.05 | 0.32 | 0.32 | 88 | 1009.5 |
| 20260507152209 | 61 | 45 | 2.0 | 9.0 | 0.07 | 0.32 | 0.32 | 88 | 1009.2 |
| 20260507151709 | 61 | 90 | 2.0 | 11.0 | 0.09 | 0.32 | 0.32 | 89 | 1009.5 |
| 20260507151209 | 61 | 68 | 2.0 | 11.0 | 0.12 | 0.32 | 0.32 | 89 | 1009.4 |
| 20260507150709 | 61 | 68 | 5.0 | 11.0 | 0.18 | 0.32 | 0.32 | 89 | 1009.2 |
| 20260507150209 | 61 | 113 | 5.0 | 11.0 | 0.22 | 0.32 | 0.32 | 89 | 1009.4 |
| 20260507145709 | 61 | 68 | 5.0 | 9.0 | 0.24 | 0.32 | 0.32 | 89 | 1009.2 |
| 20260507145209 | 60 | 90 | 5.0 | 9.0 | 0.25 | 0.32 | 0.32 | 88 | 1009.3 |
| 20260507144709 | 60 | 90 | 6.0 | 8.0 | 0.24 | 0.31 | 0.31 | 89 | 1009.3 |
| 20260507144209 | 60 | 68 | 4.0 | 7.0 | 0.24 | 0.31 | 0.31 | 89 | 1009.4 |
| 20260507143709 | 60 | 68 | 4.0 | 7.0 | 0.24 | 0.31 | 0.31 | 89 | 1009.5 |
| 20260507143209 | 60 | 23 | 0.0 | 7.0 | 0.22 | 0.30 | 0.30 | 89 | 1009.8 |
| 20260507142709 | 60 | 293 | 2.0 | 4.0 | 0.19 | 0.26 | 0.26 | 89 | 1009.8 |
| 20260507142209 | 61 | 270 | 2.0 | 4.0 | 0.15 | 0.22 | 0.22 | 88 | 1009.7 |
| 20260507141709 | 61 | 293 | 2.0 | 2.0 | 0.14 | 0.21 | 0.21 | 88 | 1009.8 |
| 20260507141209 | 61 | 270 | 2.0 | 7.0 | 0.09 | 0.17 | 0.17 | 87 | 1009.9 |
| 20260507140709 | 62 | 270 | 1.0 | 8.0 | 0.05 | 0.12 | 0.12 | 86 | 1009.8 |
| 20260507135709 | 62 | 113 | 1.0 | 11.0 | 0.00 | 0.07 | 0.07 | 84 | 1009.6 |
| 20260507135209 | 62 | 45 | 4.0 | 11.0 | 0.00 | 0.07 | 0.07 | 83 | 1009.4 |
| 20260507134709 | 63 | 45 | 2.0 | 11.0 | 0.00 | 0.07 | 0.07 | 83 | 1009.4 |
| 20260507134209 | 63 | 23 | 3.0 | 14.0 | 0.00 | 0.07 | 0.07 | 83 | 1009.4 |
| 20260507133709 | 64 | 45 | 5.0 | 14.0 | 0.00 | 0.07 | 0.07 | 82 | 1009.4 |
| 20260507132710 | 64 | 68 | 7.0 | 13.0 | 0.00 | 0.07 | 0.07 | 81 | 1009.5 |
| 20260507132209 | 63 | 23 | 5.0 | 9.0 | 0.00 | 0.07 | 0.07 | 82 | 1009.6 |
| 20260507131709 | 65 | 0 | 6.0 | 9.0 | 0.00 | 0.07 | 0.07 | 81 | 1009.7 |
| 20260507130709 | 63 | 0 | 6.0 | 11.0 | 0.00 | 0.07 | 0.07 | 79 | 1009.7 |
| 20260507130209 | 63 | 0 | 4.0 | 11.0 | 0.00 | 0.07 | 0.07 | 82 | 1009.9 |
| 20260507125709 | 61 | 23 | 6.0 | 8.0 | 0.00 | 0.07 | 0.07 | 84 | 1009.8 |
| 20260507125209 | 62 | 45 | 3.0 | 8.0 | 0.04 | 0.07 | 0.07 | 86 | 1010.0 |
| 20260507124709 | 62 | 23 | 3.0 | 8.0 | 0.07 | 0.07 | 0.07 | 87 | 1009.9 |
| 20260507124209 | 62 | 23 | 3.0 | 8.0 | 0.07 | 0.07 | 0.07 | 87 | 1010.1 |
| 20260507123709 | 62 | 23 | 4.0 | 8.0 | 0.07 | 0.07 | 0.07 | 88 | 1009.9 |
| 20260507122709 | 61 | 338 | 4.0 | 6.0 | 0.07 | 0.07 | 0.07 | 88 | 1010.2 |
| 20260507121709 | 62 | 338 | 4.0 | 11.0 | 0.07 | 0.07 | 0.07 | 88 | 1010.4 |
| 20260507121209 | 62 | 0 | 2.0 | 11.0 | 0.07 | 0.07 | 0.07 | 88 | 1010.4 |
| 20260507120709 | 61 | 338 | 5.0 | 11.0 | 0.07 | 0.07 | 0.07 | 87 | 1010.4 |
| 20260507120209 | 62 | 338 | 5.0 | 11.0 | 0.07 | 0.07 | 0.07 | 86 | 1010.2 |
| 20260507115709 | 62 | 338 | 5.0 | 11.0 | 0.06 | 0.06 | 0.06 | 84 | 1010.5 |
| 20260507115209 | 62 | 23 | 3.0 | 11.0 | 0.00 | 0.00 | 0.00 | 81 | 1010.4 |
| 20260507114709 | 63 | 45 | 5.0 | 11.0 | 0.00 | 0.00 | 0.00 | 78 | 1010.5 |
| 20260507114209 | 63 | 45 | 8.0 | 17.0 | 0.00 | 0.00 | 0.00 | 76 | 1010.5 |
| 20260507112709 | 64 | 23 | 11.0 | 15.0 | 0.00 | 0.00 | 0.00 | 76 | 1010.7 |
| 20260507112209 | 64 | 338 | 10.0 | 14.0 | 0.00 | 0.00 | 0.00 | 75 | 1010.2 |
| 20260507111709 | 64 | 338 | 8.0 | 14.0 | 0.00 | 0.00 | 0.00 | 77 | 1010.6 |
| 20260507111209 | 65 | 0 | 8.0 | 11.0 | 0.00 | 0.00 | 0.00 | 77 | 1010.5 |
| 20260507110209 | 67 | 270 | 4.0 | 9.0 | 0.00 | 0.00 | 0.00 | 72 | 1010.4 |
| 20260507105709 | 68 | 225 | 4.0 | 9.0 | 0.00 | 0.00 | 0.00 | 72 | 1010.3 |
| 20260507105209 | 69 | 68 | 4.0 | 11.0 | 0.00 | 0.00 | 0.00 | 75 | 1010.4 |
| 20260507103709 | 68 | 113 | 5.0 | 11.0 | 0.00 | 0.00 | 0.00 | 78 | 1010.7 |
| 20260507102709 | 67 | 68 | 4.0 | 11.0 | 0.00 | 0.00 | 0.00 | 81 | 1010.6 |
| 20260507102209 | 66 | 113 | 5.0 | 9.0 | 0.00 | 0.00 | 0.00 | 81 | 1010.6 |
| 20260507101710 | 66 | 135 | 4.0 | 11.0 | 0.00 | 0.00 | 0.00 | 80 | 1010.6 |
| 20260507101209 | 66 | 135 | 4.0 | 14.0 | 0.00 | 0.00 | 0.00 | 79 | 1010.5 |
| 20260507100710 | 67 | 68 | 4.0 | 14.0 | 0.00 | 0.00 | 0.00 | 79 | 1010.5 |
| 20260507100209 | 67 | 113 | 5.0 | 14.0 | 0.00 | 0.00 | 0.00 | 79 | 1010.5 |
| 20260507095209 | 67 | 158 | 4.0 | 11.0 | 0.00 | 0.00 | 0.00 | 78 | 1010.4 |
| 20260507094709 | 67 | 113 | 3.0 | 11.0 | 0.00 | 0.00 | 0.00 | 79 | 1010.4 |
| 20260507094209 | 66 | 113 | 6.0 | 13.0 | 0.00 | 0.00 | 0.00 | 77 | 1010.4 |
| 20260507093709 | 65 | 90 | 4.0 | 14.0 | 0.00 | 0.00 | 0.00 | 77 | 1010.5 |
| 20260507093209 | 65 | 90 | 8.0 | 14.0 | 0.00 | 0.00 | 0.00 | 78 | 1010.6 |
| 20260507092709 | 65 | 68 | 7.0 | 11.0 | 0.00 | 0.00 | 0.00 | 80 | 1010.7 |
| 20260507092209 | 66 | 68 | 3.0 | 11.0 | 0.00 | 0.00 | 0.00 | 79 | 1010.5 |
| 20260507091709 | 66 | 68 | 8.0 | 14.0 | 0.00 | 0.00 | 0.00 | 78 | 1010.5 |
| 20260507091209 | 67 | 68 | 6.0 | 14.0 | 0.00 | 0.00 | 0.00 | 78 | 1010.5 |